Regional Weather Roundup
Issued by NWS

Home | Current Version | Previous Version | Graphics & Text | Print | Product List | Glossary On
Versions: 1 2 3 4 5 6 7 8 9 10 11 12 13 14 15 16 17 18 19 20 21 22 23 24 25 26 27
000
ASUS45 KPSR 291410
RWRAZ

ARIZONA HOURLY REGIONAL WEATHER ROUNDUP
NATIONAL WEATHER SERVICE PHOENIX AZ
700 AM MST FRI JUL 29 2016

NOTE: FAIR INDICATES FEW OR NO CLOUDS BELOW 12,000 FEET WITH NO
SIGNIFICANT WEATHER AND/OR OBSTRUCTIONS TO VISIBILITY.

AZZ001>003-036-291500-
NORTHWEST ARIZONA

CITY           SKY/WX    TMP DP  RH WIND       PRES   REMARKS
BULLHEAD CITY  PTSUNNY   97  50  20 S6        29.76R
KINGMAN        MOSUNNY   80  47  31 SE7       30.00R
$$

AZZ004>008-015-016-018-291500-
NORTH CENTRAL ARIZONA

CITY           SKY/WX    TMP DP  RH WIND       PRES   REMARKS
GRAND CANYON   HAZE      64  50  60 CALM      30.27S VSB 1/2
WILLIAMS       MOSUNNY   66  48  52 S7        30.35S
PRESCOTT       PTSUNNY   78  49  35 S7        30.14S
FLAGSTAFF      PTSUNNY   60  47  61 CALM      30.29S
PAYSON         SUNNY     73  48  40 CALM      30.18R
PAGE           MOSUNNY   84  41  21 NW6       30.03S
$$

AZZ009>014-017-291500-
NORTHEAST ARIZONA

CITY           SKY/WX    TMP DP  RH WIND       PRES   REMARKS
WINSLOW        CLOUDY    72  46  39 E3        30.12R
WINDOW ROCK    MOSUNNY   63  44  50 SW5       30.27R
SHOW LOW       SUNNY     68  43  40 S12       30.25R
$$

AZZ023-291500-
GREATER PHOENIX AREA

CITY           SKY/WX    TMP DP  RH WIND       PRES   REMARKS
PHOENIX        MOSUNNY   93  62  35 NW10      29.82R
BUCKEYE        CLOUDY    88  64  45 SW8       29.85R
GLENDALE       MOSUNNY   91  63  38 S12G23    29.83S
LUKE AFB       PTSUNNY   91  64  41 SW20G28   29.81R
DEER VALLEY    PTSUNNY   88  65  46 SW5       29.85R
SCOTTSDALE     MOSUNNY   92  61  35 VRB5      29.87R
MESA-GATEWAY   MOSUNNY   88  64  45 E9        29.87R
CHANDLER       MOSUNNY   90  64  43 VRB6      29.84R
$$

AZZ027-028-291500-
SOUTHWEST MARICOPA COUNTY AND PINAL COUNTY

CITY           SKY/WX    TMP DP  RH WIND       PRES   REMARKS
CASA GRANDE    SUNNY     88  64  45 S8        29.88S
GILA BEND      FAIR      91  62  37 W8        29.83R
$$

AZZ503-504-507>509-291500-
SOUTHEAST ARIZONA

CITY           SKY/WX    TMP DP  RH WIND       PRES   REMARKS
TUCSON         SUNNY     82  67  60 S7        29.98R
DAVIS-MONTHAN  MOSUNNY   80  68  66 S7        29.97R
RYAN FIELD     SUNNY     81  68  65 NW6       29.96R
NOGALES        SUNNY     73  68  84 CALM      30.07R
SIERRA VISTA   SUNNY     76  61  59 CALM      30.13R
DOUGLAS        MOSUNNY   74  65  73 E6        30.09R
SAFFORD        MOSUNNY   82  56  40 E7        29.98R
$$

AZZ020-021-025-026-031-291500-
SOUTHWEST ARIZONA

CITY           SKY/WX    TMP DP  RH WIND       PRES   REMARKS
YUMA           MOSUNNY   86  77  74 SE7       29.78R
$$

CAZ031-033-041-043-047-048-061-291500-
SOUTHERN CALIFORNIA

CITY           SKY/WX    TMP DP  RH WIND       PRES   REMARKS
DOWNTOWN L.A.  SUNNY     70  63  78 CALM      29.83R
L.A. AIRPORT   MOSUNNY   70  65  84 SW6       29.84R
SAN DIEGO      MOSUNNY   70  66  87 NE3       29.85R
BURBANK        SUNNY     73  59  61 SE3       29.84R
ONTARIO        SUNNY     76  55  48 CALM      29.85R
RIVERSIDE      SUNNY     74  54  49 CALM      29.86R
PALM SPRINGS   SUNNY     89  70  53 E13       29.81R
EL CENTRO NAS  MOSUNNY   86  76  71 CALM      29.74S
IMPERIAL       SUNNY     88  78  72 SE10      29.72S HX 101
NEEDLES        PTSUNNY   97  56  25 E3        29.78R
$$

NVZ020-UTZ003-291500-
SOUTHERN NEVADA-UTAH

CITY           SKY/WX    TMP DP  RH WIND       PRES   REMARKS
LAS VEGAS      PTSUNNY   95  49  20 SW3       29.82S
SALT LAKE CITY MOSUNNY   80  43  26 SE8       30.04S
$$

NMZ009-TXZ055-291500-
NEW MEXICO-WEST TEXAS

CITY           SKY/WX    TMP DP  RH WIND       PRES   REMARKS
ALBUQUERQUE    MOSUNNY   76  51  41 SE3       30.19S
EL PASO        MOSUNNY   80  57  45 CALM      30.09R
$$


........................KEY........................
SKY/WX - SKY CONDITION/WEATHER
TMP    - TEMPERATURE IN FAHRENHEIT
DP     - DEW POINT IN FAHRENHEIT
RH     - RELATIVE HUMIDITY IN PERCENT
WIND   - DIRECTION AND SPEED IN MILES PER HOUR (MPH)
VRB    - VARIABLE WIND DIRECTION
PRES   - MEAN SEA LEVEL PRESSURE IN INCHES OF MERCURY
         F - FALLING PRESSURE   R - RISING PRESSURE
         S - STEADY PRESSURE
VSB    - VISIBILITY IN MILES
HX     - HEAT INDEX IN FAHRENHEIT
WCI    - WIND CHILL INDEX IN FAHRENHEIT
TC     - TEMPERATURE IN CELSIUS WHICH IS ALSO KNOWN AS
         TEMPERATURE IN CENTIGRADE
AFB    - AIR FORCE BASE
         LUKE AFB IS LUKE AIR FORCE BASE
         DAVIS-MONTHAN IS DAVIS-MONTHAN AIR FORCE BASE
NAS    - NAVAL AIR STATION
         EL CENTRO NAS IS EL CENTRO NAVAL AIR STATION
N/A    - NOT AVAILABLE





USA.gov is the U.S. government's official web portal to all federal, state and local government web resources and services.